CW6488 Weather Reports


time (UTC)temp
C
wind
direction
speed
KPH
gust
KPH
rain 1hr
cm
rain 24hr
cm
rain mn
cm
humidity
%
barometer
mb
20260504081517 12 101 0.0 0.0 0.00 0.00 0.00 89 1016.5
20260504044544 15 101 0.0 0.0 0.00 0.00 0.00 86 1017.8
20260504043014 15 101 0.0 0.0 0.00 0.00 0.00 86 1017.8
20260504041544 15 101 0.0 0.0 0.00 0.00 0.00 86 1017.8
20260504040044 15 101 0.0 0.0 0.00 0.00 0.00 84 1017.8
20260504034513 15 101 0.0 0.0 0.00 0.00 0.00 84 1017.8
20260504033044 16 101 0.0 0.0 0.00 0.00 0.00 83 1017.8
20260504031543 16 101 0.0 0.0 0.00 0.00 0.00 82 1017.9
20260504024543 17 101 0.0 0.0 0.00 0.00 0.00 80 1017.6
20260504023013 17 101 0.0 0.0 0.00 0.00 0.00 79 1017.5
20260504021543 17 101 0.0 0.0 0.00 0.00 0.00 77 1017.4
20260504020043 18 101 0.0 0.0 0.00 0.00 0.00 75 1017.2
20260504014542 18 101 0.0 0.0 0.00 0.00 0.00 74 1017.1
20260504013042 19 101 0.0 0.0 0.00 0.00 0.00 72 1017.0
20260504011542 20 101 0.0 0.0 0.00 0.00 0.00 69 1016.8
20260504010042 21 101 0.0 0.0 0.00 0.00 0.00 66 1016.7
20260504004542 21 101 0.0 0.0 0.00 0.00 0.00 63 1016.7
20260504003049 22 115 0.0 0.0 0.00 0.00 0.00 62 1016.6
20260504000041 23 115 0.0 0.0 0.00 0.00 0.00 57 1016.6
20260503234541 23 114 0.0 0.0 0.00 0.00 0.00 56 1016.7
20260503233041 23 146 1.6 0.0 0.00 0.00 0.00 55 1016.7
20260503231541 24 146 0.0 0.0 0.00 0.00 0.00 55 1016.7
20260503230040 24 182 0.0 0.0 0.00 0.00 0.00 53 1016.7
20260503224540 25 76 0.0 0.0 0.00 0.00 0.00 52 1016.7
20260503223040 25 355 1.6 0.0 0.00 0.00 0.00 52 1016.8
20260503221540 24 278 1.6 0.0 0.00 0.00 0.00 51 1016.9
20260503220040 24 295 4.8 0.0 0.00 0.00 0.00 50 1017.0
20260503214539 25 69 1.6 0.0 0.00 0.00 0.00 48 1017.3
20260503213039 25 214 6.4 0.0 0.00 0.00 0.00 43 1017.5
20260503211538 25 272 6.4 0.0 0.00 0.00 0.00 44 1017.7
20260503210039 24 215 0.0 0.0 0.00 0.00 0.00 44 1017.9
20260503204538 25 247 3.2 0.0 0.00 0.00 0.00 49 1018.0
20260503203038 24 260 4.8 0.0 0.00 0.00 0.00 48 1018.2
20260503201538 25 119 1.6 0.0 0.00 0.00 0.00 46 1018.4
20260503200038 25 144 3.2 0.0 0.00 0.00 0.00 47 1018.9
20260503194538 25 328 4.8 0.0 0.00 0.00 0.00 49 1019.0
20260503193037 25 119 0.0 0.0 0.00 0.00 0.00 42 1019.2
20260503191537 25 136 1.6 0.0 0.00 0.00 0.00 42 1019.4
20260503190037 25 96 1.6 0.0 0.00 0.00 0.00 49 1019.6
20260503183036 25 180 3.2 0.0 0.00 0.00 0.00 44 1020.0
20260503181536 25 121 4.8 0.0 0.00 0.00 0.00 44 1020.3
20260503180036 25 302 4.8 0.0 0.00 0.00 0.00 45 1020.5
20260503174536 25 65 1.6 0.0 0.00 0.00 0.00 47 1020.4
20260503173036 24 174 1.6 0.0 0.00 0.00 0.00 44 1020.6
20260503171535 23 130 3.2 0.0 0.00 0.00 0.00 45 1021.0